TIME,DELAY(SENSOR),PRES,OXYGEN,RAWTEMP,T(OPTODE),TCPHASE,FLUOR,BETA(BETA700),BETA(BETA412),BETA(BETA440),CDOM,C(CSC),ED(ED412.20),ED(ED444.00),ED(ED489.60),ED(ED554.30),LU(LU412.10),LU(LU443.90),LU(LU489.70),LU(LU554.70),COMP,TILTX,TILTY,CHECK
1358909709,5810,874.7999877929688000,34.3250885009765600,561.3151245117188000,4.4451308250427250,56.3996200561523440,55,100,101,78,82,15546,0,0,0,0,2147124123,2147774262,2147569453,2147571520,91,3,13,13328
1358913305,5809,949.7600097656250000,43.1678504943847660,569.3436279296875000,4.1959590911865230,55.1442108154296900,55,100,100,78,80,15545,0,0,0,0,2147123318,2147775241,2147568356,2147568182,2818,2,13,757
1358916905,5809,961.8800048828125000,43.2713813781738300,569.4287719726562000,4.1933097839355470,55.1255111694335940,55,99,99,77,83,15528,0,0,0,0,2147122212,2147773696,2147570029,2147570185,434,2,13,59809
1358920505,5810,1002.0900268554688000,43.1346282958984400,570.5936279296875000,4.1571140289306640,55.1588287353515600,55,100,101,79,83,15527,0,0,0,0,2147123318,2147771017,2147570633,2147567259,230,2,13,59227
1358924105,5812,1000.4099731445312000,43.3105392456054700,570.6445922851562000,4.1555290222167970,55.1376991271972660,54,99,100,78,82,15522,0,0,0,0,2147120950,2147771840,2147571702,2147567469,278,3,13,59572
1358927705,5810,1001.4299926757812000,43.1848716735839840,570.6068115234375000,4.1567020416259770,55.1565017700195300,55,99,100,76,82,15524,0,0,0,0,2147124681,2147780160,2147574308,2147565568,349,2,13,65185
1358931305,5808,1005.2100219726562000,43.0759010314941400,571.0313110351562000,4.1435070037841800,55.1762809753418000,55,97,100,78,81,15527,0,0,0,0,2147123136,2147776173,2147568173,2147569435,191,3,13,2518
1358934905,5809,999.5499877929688000,43.6027183532714840,572.2421875000000000,4.1058621406555180,55.1132316589355500,55,100,100,78,83,15526,0,0,0,0,2147126418,2147773156,2147570779,2147568365,211,3,13,56003
1358938505,5808,1009.5000000000000000,43.4281387329101560,571.6010742187500000,4.1257929801940920,55.1323394775390600,55,99,100,78,82,15522,0,0,0,0,2147124452,2147768740,2147573924,2147564013,127,2,13,28613
1358942105,5810,1002.2500000000000000,43.2995796203613300,571.5661010742188000,4.1268839836120605,55.1489295959472660,54,98,99,78,82,15524,0,0,0,0,2147125174,2147778989,2147572708,2147566043,194,3,13,63535
1358945705,5811,1012.5900268554688000,43.5305709838867200,571.6492919921875000,4.1242961883544920,55.1173896789550800,55,101,101,77,81,15525,0,0,0,0,2147120548,2147771812,2147571090,2147567442,3285,3,13,22501
1358949305,5808,1010.1799926757812000,43.6604614257812500,571.8643188476562000,4.1176109313964840,55.1006507873535160,54,97,100,77,82,15519,0,0,0,0,2147123190,2147774683,2147572187,2147567963,547,3,13,27766
1358952905,5810,1009.2100219726562000,43.4805183410644500,572.2327880859375000,4.1061549186706540,55.1263694763183600,56,102,99,78,83,15522,0,0,0,0,2147123264,2147768274,2147575625,2147565650,188,2,13,12203
1358956505,5806,1010.9699707031250000,43.5884399414062500,572.0825195312500000,4.1108260154724120,55.1098899841308600,55,99,100,77,82,15522,0,0,0,0,2147120292,2147776521,2147570797,2147563410,664,3,13,21528
1358960105,5809,1009.2999877929688000,43.5556411743164060,572.8046264648438000,4.0883731842041020,55.1256217956543000,54,99,100,78,80,15524,0,0,0,0,2147122002,2147775305,2147571227,2147569133,465,3,13,62087
1358963705,5809,1004.3499755859375000,43.5272102355957000,573.0479125976562000,4.0808072090148930,55.1286087036132800,54,100,99,79,82,15517,0,0,0,0,2147125988,2147771538,2147571547,2147568448,55,3,13,24517
1358967305,5806,1010.4000244140625000,44.4015007019043000,573.5109252929688000,4.0664057731628420,55.0150604248046900,55,101,101,78,82,15521,0,0,0,0,2147123218,2147768155,2147570870,2147567360,1279,2,13,3921
1358970905,5809,1009.1599731445312000,43.7967796325683600,573.4605712890625000,4.0679721832275390,55.0996284484863300,55,97,100,78,81,15513,0,0,0,0,2147123410,2147774957,2147570806,2147567570,2939,3,13,6695
1358974505,5809,1012.8800048828125000,44.0265502929687500,572.8051757812500000,4.0883560180664060,55.0597305297851560,55,96,98,78,82,15517,0,0,0,0,2147120786,2147778212,2147571465,2147570688,3094,2,13,55804
1358978105,5809,1015.1099853515625000,43.9646301269531250,572.6652832031250000,4.0927071571350100,55.0663795471191400,55,98,101,78,81,15515,0,0,0,0,2147123300,2147767378,2147575853,2147567113,3298,3,13,16918
1358981705,5811,1003.5599975585938000,43.6218299865722660,572.8057250976562000,4.0883412361145020,55.1178894042968750,55,98,101,78,82,15511,0,0,0,0,2147120338,2147776438,2147576192,2147569764,3435,2,13,4308
1358985305,5807,1009.8200073242188000,44.0773887634277340,573.7984008789062000,4.0574631690979000,55.0623397827148440,55,99,101,78,81,15515,0,0,0,0,2147119890,2147771702,2147573184,2147570605,217,2,13,11797
1358988905,5809,1009.1099853515625000,43.9024009704589840,573.1660156250000000,4.0771350860595700,55.0847206115722660,55,97,99,79,83,15509,0,0,0,0,2147121563,2147774765,2147572982,2147568585,3587,2,13,11139
1358992505,5808,1013.0900268554688000,44.2662811279296900,573.6367797851562000,4.0624890327453610,55.0323982238769500,55,98,100,78,81,15514,0,0,0,0,2147124928,2147774509,2147574793,2147568731,604,3,13,11374
1358996105,5808,1011.5599975585938000,43.5175590515136700,573.4710083007812000,4.0676460266113280,55.1355781555175800,55,97,100,78,81,15515,0,0,0,0,2147123657,2147774665,2147574400,2147569261,3533,2,13,8820
1358999705,5810,1004.7000122070312000,44.1331710815429700,573.8823242187500000,4.0548520088195800,55.0537109375000000,54,99,100,78,83,15515,0,0,0,0,2147121883,2147779117,2147573668,2147569737,130,2,13,65126
1359003305,5810,1012.0000000000000000,44.3201789855957000,573.8867187500000000,4.0547161102294920,55.0309410095214840,55,100,100,77,82,15513,0,0,0,0,2147124717,2147772114,2147569837,2147565997,18,2,13,42810
1359006905,5808,1006.2299804687500000,43.9481887817382800,574.3632812500000000,4.0398859977722170,55.0884208679199200,55,99,100,78,81,15511,0,0,0,0,2147123785,2147774976,2147575058,2147568621,283,3,13,22966
1359010505,5809,1014.6099853515625000,44.3498001098632800,573.6895141601562000,4.0608520507812500,55.0222587585449200,56,103,100,78,81,15512,0,0,0,0,2147122724,2147772937,2147575670,2147570249,3341,2,13,60779
1359014105,5810,1014.5800170898438000,44.0783195495605500,573.6480712890625000,4.0621399879455570,55.0639114379882800,54,98,100,78,82,15511,0,0,0,0,2147121371,2147776027,2147569709,2147568667,3296,2,13,43837
1359017705,5809,1010.2500000000000000,43.8004798889160160,574.0418090820312000,4.0498909950256350,55.1016502380371100,54,97,101,78,81,15512,0,0,0,0,2147119808,2147772836,2147578477,2147568667,105,2,13,46935
1359021305,5810,1013.7399902343750000,43.8071899414062500,573.6445922851562000,4.0622482299804690,55.0941314697265600,55,98,100,77,82,15512,0,0,0,0,2147124178,2147770340,2147573421,2147567707,3168,2,13,32550
1359024905,5810,1011.7399902343750000,43.8180503845214840,573.7783203125000000,4.0580878257751465,55.0994186401367200,55,97,100,77,82,15512,0,0,0,0,2147124004,2147777691,2147575725,2147570075,131,2,13,40808
1359028505,5810,1020.0599975585938000,44.2340393066406250,573.6021728515625000,4.0635638236999510,55.0359191894531250,54,100,100,79,81,15511,0,0,0,0,2147121307,2147773156,2147573028,2147567844,3193,3,13,22323
1359032105,5810,1017.3400268554688000,43.8849182128906250,572.9459228515625000,4.0839772224426270,55.0868110656738300,54,100,100,78,82,15497,0,0,0,0,2147120402,2147772864,2147571300,2147572617,331,3,13,15267
1359035705,5811,1020.4299926757812000,43.5782890319824200,572.6876831054688000,4.0920071601867680,55.1177291870117200,54,102,100,78,83,15513,0,0,0,0,2147121499,2147769334,2147577481,2147566528,173,2,13,23406
1359039305,5807,1026.0600585937500000,41.7901496887207000,571.6491699218750000,4.1242980957031250,55.3667907714843750,55,99,100,79,82,15511,0,0,0,0,2147122477,2147771364,2147566134,2147569371,569,2,13,63833
1359042905,5810,1019.9699707031250000,41.8873100280761700,571.6837768554688000,4.1232218742370605,55.3514900207519500,54,99,100,79,81,15503,0,0,0,0,2147120950,2147772900,2147571913,2147565723,245,2,13,51028
1359046505,5811,1015.5499877929688000,43.3993415832519500,572.7993774414062000,4.0885348320007320,55.1499595642089840,56,98,100,78,82,15507,0,0,0,0,2147118281,2147776932,2147577856,2147567442,967,2,13,61798
1359050105,5814,1011.9899902343750000,44.0715103149414060,574.0372924804688000,4.0500321388244630,55.0669898986816400,54,100,101,79,82,15508,0,0,0,0,2147119049,2147772571,2147571849,2147567168,1799,3,13,23967
1359053705,5810,1017.3099975585938000,43.4356384277343750,573.0037841796875000,4.0821762084960940,55.1414299011230500,55,98,100,78,81,15506,0,0,0,0,2147121965,2147776411,2147575826,2147566116,2994,2,13,43053
1359054955,5810,1021.3099975585938000,43.6513404846191400,572.8842163085938000,4.0858988761901855,55.1130218505859400,54,99,100,76,82,15503,0,0,0,0,2147121051,2147776448,2147579684,2147569298,346,2,13,26660
